Weather in Virginia Beach

United States     36°50′59″N   75°58′37″W
temp.,
°C
wind,
m/s
gust,
m/s
humid.,
%
clouds,
%
prec.,
mm/h
press.,
hPa
HPBL,
m
26 may, thu
thu2623:00+16ene5129399 0.1 1024522
02:00+17ene41094100 0.2 1023343
05:00+17ene3996100 0.3 1023267
08:00+18ese3996100 0.6 1023269
11:00+21se468868 0.1 1023430
14:00+24se566952 0.1 1021925
17:00+23se467348 0.0 1020589
20:00+20sse38895 0.0 1019231
27 may, fri
fri2723:00+19s39931 0.0 1019217
02:00+19s411955 0.0 1017254
05:00+19s31198100 0.0 1017315
08:00+22s4118883 0.0 1017502
11:00+26s6972100 0.3 10151053
14:00+23ssw51087100 2.8 1014687
17:00+24s51183100 1.7 1012782
20:00+22s61489100 2.4 1012789
28 may, sat
sat2823:00+21s6149499 5.5 1010547
02:00+20s51397100 8.3 1009483
05:00+19ssw41096100 0.8 1009276
08:00+20sw4990100 1.1 1009313
11:00+24w47621 0.6 10101009
14:00+26w47484 0.7 10101741
17:00+26w464430 0.0 10101818
20:00+22nnw366419 0.0 1012195
29 may, sun
sun2923:00+19nnw22710 0.0 101419
02:00+18nw23770 0.0 101547
05:00+17nw22835 0.0 101630
08:00+20nnw227287 0.0 1018227
11:00+24nne22565 0.0 1019949
14:00+25e32525 0.0 10181063
17:00+23ese44605 0.0 1018450
20:00+20se36765 0.0 1019148
30 may, mon
mon3023:00+18s38815 0.0 1020156
02:00+18ssw37865 0.0 1020137
05:00+18sw26915 0.0 1021118
08:00+21sw36745 0.0 1022228
11:00+27sw355463 0.0 1022850
14:00+30sw244767 0.0 10201523
17:00+30s24475 0.0 10181579
20:00+24s47726 0.0 1019168